STARLINK-36936

Last updated on Mon Mar 30 2026 00:02:05 GMT+0000 (Coordinated Universal Time)

1 68012U 26039AC 26088.16668981 -.01923552 00000+0 -55673-1 0 9991 2 68012 43.0002 298.7167 0001685 263.9275 130.5597 15.38334105 6001
UTC large
Height (km)
Speed (km/s)
/
Latitude / Longitude
Inclination (degrees)
Orbital Period (minutes)
Azimuth
Elevation
Range (km)
Doppler Factor

Next 0 passes for location: London (51.5072 / 0.1276)

Sorry there are no passes over London.